FW4092 Weather Reports


Display with metric or nautical units.
time (UTC)temp
F
wind
direction
speed
MPH
gust
MPH
rain 1hr
in
rain 24hr
in
rain mn
in
humidity
%
barometer
mb
20190619005024 81 346 4.0 11.0 0.00 0.00 0.00 22 1018.8
20190619004521 82 56 4.0 10.0 0.00 0.00 0.00 21 1018.8
20190619004019 82 27 4.0 11.0 0.00 0.00 0.00 23 1018.9
20190619003519 82 355 4.0 13.0 0.00 0.00 0.00 22 1019.0
20190619003019 82 55 4.0 13.0 0.00 0.00 0.00 22 1019.0
20190619002519 82 341 5.0 12.0 0.00 0.00 0.00 22 1019.0
20190619002018 82 9 4.0 12.0 0.00 0.00 0.00 22 1019.0
20190619001520 83 343 4.0 12.0 0.00 0.00 0.00 22 1019.0
20190619001019 82 38 5.0 13.0 0.00 0.00 0.00 22 1019.3
20190619000518 82 17 5.0 13.0 0.00 0.00 0.00 21 1019.0
20190619000019 83 349 3.0 10.0 0.00 0.00 0.00 22 1018.9
20190618235525 83 348 3.0 11.0 0.00 0.00 0.00 21 1019.1
20190618235022 83 97 3.0 11.0 0.00 0.00 0.00 20 1019.0
20190618234522 83 355 3.0 11.0 0.00 0.00 0.00 22 1019.1
20190618234021 83 53 4.0 11.0 0.00 0.00 0.00 21 1019.1
20190618233520 83 346 4.0 9.0 0.00 0.00 0.00 21 1019.1
20190618233020 83 355 3.0 9.0 0.00 0.00 0.00 22 1019.1
20190618232522 82 350 4.0 10.0 0.00 0.00 0.00 23 1019.1
20190618232017 82 13 5.0 10.0 0.00 0.00 0.00 23 1019.4
20190618231521 82 48 5.0 16.0 0.00 0.00 0.00 23 1019.3
20190618231017 83 317 4.0 16.0 0.00 0.00 0.00 21 1019.3
20190618230518 83 55 4.0 11.0 0.00 0.00 0.00 22 1019.3
20190618230018 83 342 4.0 11.0 0.00 0.00 0.00 22 1019.1
20190618225517 83 340 5.0 15.0 0.00 0.00 0.00 23 1019.3
20190618225017 83 338 4.0 15.0 0.00 0.00 0.00 24 1019.3
20190618224517 82 39 4.0 15.0 0.00 0.00 0.00 25 1019.1
20190618224017 83 355 5.0 15.0 0.00 0.00 0.00 25 1019.4
20190618223517 82 341 4.0 12.0 0.00 0.00 0.00 26 1019.3
20190618223017 82 99 4.0 12.0 0.00 0.00 0.00 26 1019.3
20190618222517 83 355 4.0 11.0 0.00 0.00 0.00 27 1019.5
20190618222017 82 37 4.0 13.0 0.00 0.00 0.00 28 1019.1
20190618221517 82 355 4.0 13.0 0.00 0.00 0.00 27 1019.3
20190618221019 82 79 4.0 13.0 0.00 0.00 0.00 28 1019.3
20190618220518 81 27 4.0 13.0 0.00 0.00 0.00 29 1019.3
20190618220018 81 28 3.0 9.0 0.00 0.00 0.00 29 1019.5
20190618215517 80 300 3.0 11.0 0.00 0.00 0.00 29 1019.5
20190618215019 80 11 3.0 11.0 0.00 0.00 0.00 30 1019.6
20190618214516 81 300 4.0 10.0 0.00 0.00 0.00 30 1019.6
20190618214014 80 284 4.0 10.0 0.00 0.00 0.00 30 1019.6
20190618213513 81 13 3.0 10.0 0.00 0.00 0.00 31 1019.6
20190618213015 81 329 4.0 9.0 0.00 0.00 0.00 30 1019.5
20190618212513 82 299 4.0 10.0 0.00 0.00 0.00 30 1019.7
20190618212012 81 40 4.0 11.0 0.00 0.00 0.00 31 1019.6
20190618211512 80 52 4.0 11.0 0.00 0.00 0.00 31 1019.7
20190618211012 80 355 4.0 12.0 0.00 0.00 0.00 31 1019.7
20190618210512 80 15 5.0 12.0 0.00 0.00 0.00 31 1019.8
20190618210013 80 338 5.0 11.0 0.00 0.00 0.00 32 1019.7
20190618205513 80 323 4.0 11.0 0.00 0.00 0.00 33 1019.7
20190618205012 80 34 4.0 11.0 0.00 0.00 0.00 31 1019.7
20190618204512 80 355 4.0 10.0 0.00 0.00 0.00 31 1019.7
20190618204012 80 65 4.0 12.0 0.00 0.00 0.00 31 1019.6
20190618203511 80 277 4.0 12.0 0.00 0.00 0.00 30 1019.6
20190618203010 81 22 3.0 10.0 0.00 0.00 0.00 31 1019.8
20190618202511 80 338 4.0 12.0 0.00 0.00 0.00 32 1019.6
20190618202010 79 5 5.0 12.0 0.00 0.00 0.00 33 1019.7
20190618201509 79 311 5.0 13.0 0.00 0.00 0.00 32 1019.5
20190618201008 79 46 5.0 13.0 0.00 0.00 0.00 32 1019.7
20190618200511 80 26 5.0 11.0 0.00 0.00 0.00 31 1019.6
20190618200008 80 24 5.0 11.0 0.00 0.00 0.00 32 1019.7
20190618195508 80 323 4.0 9.0 0.00 0.00 0.00 32 1019.6
20190618195008 79 12 4.0 13.0 0.00 0.00 0.00 32 1019.6
20190618194508 80 40 4.0 15.0 0.00 0.00 0.00 31 1019.5
20190618194008 80 38 3.0 15.0 0.00 0.00 0.00 28 1019.6
20190618193508 79 14 3.0 7.0 0.00 0.00 0.00 28 1019.7
20190618193008 79 65 4.0 9.0 0.00 0.00 0.00 28 1019.7
20190618192506 79 31 4.0 9.0 0.00 0.00 0.00 29 1019.7
20190618192006 79 317 3.0 12.0 0.00 0.00 0.00 29 1019.7
20190618191506 79 306 3.0 12.0 0.00 0.00 0.00 28 1019.7
20190618191006 78 5 2.0 10.0 0.00 0.00 0.00 31 1019.6
20190618190506 78 236 2.0 7.0 0.00 0.00 0.00 31 1019.7
20190618190006 77 202 3.0 8.0 0.00 0.00 0.00 32 1019.8
20190618185506 77 200 3.0 8.0 0.00 0.00 0.00 34 1019.8
20190618185006 76 209 3.0 8.0 0.00 0.00 0.00 36 1019.8
20190618184506 76 286 3.0 6.0 0.00 0.00 0.00 35 1019.7
20190618184006 75 345 3.0 6.0 0.00 0.00 0.00 36 1019.9
20190618183506 75 44 3.0 6.0 0.00 0.00 0.00 36 1019.8
20190618183006 75 260 3.0 6.0 0.00 0.00 0.00 38 1019.9
20190618182507 75 30 3.0 8.0 0.00 0.00 0.00 38 1020.0
20190618182006 75 56 2.0 8.0 0.00 0.00 0.00 39 1020.0
20190618181508 74 350 2.0 7.0 0.00 0.00 0.00 40 1020.0
20190618181005 74 60 2.0 8.0 0.00 0.00 0.00 41 1020.0
20190618180506 73 217 2.0 8.0 0.00 0.00 0.00 42 1019.9
20190618180006 73 303 2.0 6.0 0.00 0.00 0.00 41 1020.0
20190618175506 73 0 2.0 5.0 0.00 0.00 0.00 41 1020.0
20190618175006 73 5 3.0 9.0 0.00 0.00 0.00 42 1020.0
20190618174508 72 28 3.0 9.0 0.00 0.00 0.00 43 1020.1
20190618174003 72 294 3.0 8.0 0.00 0.00 0.00 44 1020.0
20190618173504 72 283 3.0 8.0 0.00 0.00 0.00 43 1020.0
20190618173004 72 348 3.0 7.0 0.00 0.00 0.00 40 1020.0
20190618172509 72 299 3.0 7.0 0.00 0.00 0.00 44 1020.1
20190618172008 72 270 2.0 6.0 0.00 0.00 0.00 44 1020.1
20190618171503 71 287 2.0 6.0 0.00 0.00 0.00 46 1020.1
20190618171003 71 330 2.0 5.0 0.00 0.00 0.00 47 1020.1
20190618170504 70 90 2.0 5.0 0.00 0.00 0.00 47 1020.1
20190618170004 70 351 2.0 6.0 0.00 0.00 0.00 47 1020.2
20190618165505 69 61 3.0 6.0 0.00 0.00 0.00 48 1020.2
20190618165004 69 355 3.0 9.0 0.00 0.00 0.00 47 1020.2
20190618164504 69 355 3.0 9.0 0.00 0.00 0.00 48 1020.3
20190618164006 69 312 4.0 9.0 0.00 0.00 0.00 50 1020.5
20190618163506 69 254 4.0 10.0 0.00 0.00 0.00 49 1020.3
20190618163004 69 323 3.0 10.0 0.00 0.00 0.00 49 1020.3
20190618162504 69 40 2.0 6.0 0.00 0.00 0.00 51 1020.2
20190618162006 68 344 3.0 8.0 0.00 0.00 0.00 52 1020.3
20190618161503 68 38 3.0 8.0 0.00 0.00 0.00 51 1020.3
20190618161004 68 311 3.0 6.0 0.00 0.00 0.00 52 1020.3
20190618160506 67 318 3.0 8.0 0.00 0.00 0.00 52 1020.3
20190618160003 67 312 2.0 8.0 0.00 0.00 0.00 54 1020.5
20190618155503 67 355 2.0 6.0 0.00 0.00 0.00 53 1020.5
20190618155004 67 36 3.0 6.0 0.00 0.00 0.00 54 1020.5
20190618154504 66 32 2.0 5.0 0.00 0.00 0.00 55 1020.6
20190618154004 66 5 2.0 6.0 0.00 0.00 0.00 55 1020.6
20190618153504 66 341 3.0 6.0 0.00 0.00 0.00 55 1020.5
20190618153003 66 32 2.0 5.0 0.00 0.00 0.00 55 1020.6
20190618152503 65 32 2.0 4.0 0.00 0.00 0.00 56 1020.7
20190618152001 65 342 1.0 4.0 0.00 0.00 0.00 57 1020.6
20190618151502 65 327 1.0 4.0 0.00 0.00 0.00 55 1020.6
20190618151002 65 17 2.0 4.0 0.00 0.00 0.00 57 1020.6
20190618150501 64 26 2.0 4.0 0.00 0.00 0.00 57 1020.7
20190618150001 64 30 1.0 3.0 0.00 0.00 0.00 58 1020.7
20190618145502 64 5 1.0 4.0 0.00 0.00 0.00 58 1020.7
20190618145002 63 121 1.0 4.0 0.00 0.00 0.00 59 1020.9
20190618144501 62 108 1.0 3.0 0.00 0.00 0.00 60 1020.8
20190618144002 62 71 1.0 4.0 0.00 0.00 0.00 61 1020.8
20190618143459 61 101 1.0 4.0 0.00 0.00 0.00 63 1020.8
20190618142959 60 97 2.0 5.0 0.00 0.00 0.00 65 1020.9
20190618142459 59 115 3.0 7.0 0.00 0.00 0.00 65 1020.9
20190618142000 58 148 3.0 7.0 0.00 0.00 0.00 66 1020.9
20190618141503 58 119 3.0 6.0 0.00 0.00 0.00 67 1020.8
20190618140957 57 148 3.0 7.0 0.00 0.00 0.00 68 1020.8
20190618140459 57 123 3.0 7.0 0.00 0.00 0.00 69 1020.8
20190618135957 56 123 4.0 7.0 0.00 0.00 0.00 70 1020.9
20190618135458 56 144 4.0 7.0 0.00 0.00 0.00 70 1020.9
20190618134959 56 140 3.0 7.0 0.00 0.00 0.00 70 1020.8
20190618134458 55 123 3.0 7.0 0.00 0.00 0.00 71 1020.9
20190618133957 55 140 4.0 7.0 0.00 0.00 0.00 71 1020.9
20190618133458 54 143 4.0 7.0 0.00 0.00 0.00 72 1020.9
20190618132957 54 138 3.0 7.0 0.00 0.00 0.00 72 1020.9
20190618132500 54 131 3.0 7.0 0.00 0.00 0.00 73 1020.8
20190618131958 54 136 3.0 5.0 0.00 0.00 0.00 73 1020.7
20190618131501 53 142 2.0 5.0 0.00 0.00 0.00 75 1020.7
20190618130958 53 129 2.0 5.0 0.00 0.00 0.00 77 1020.7
20190618130456 53 134 2.0 4.0 0.00 0.00 0.00 77 1020.8
20190618125957 52 117 1.0 3.0 0.00 0.00 0.00 77 1020.7
20190618125455 52 113 1.0 2.0 0.00 0.00 0.00 77 1020.6
20190618124957 53 108 1.0 3.0 0.00 0.00 0.00 76 1020.6
20190618124455 53 117 2.0 3.0 0.00 0.00 0.00 76 1020.5
20190618123954 53 124 2.0 3.0 0.00 0.00 0.00 75 1020.5
20190618123454 53 125 2.0 3.0 0.00 0.00 0.00 74 1020.3
20190618122955 54 123 2.0 3.0 0.00 0.00 0.00 73 1020.3
20190618122455 55 131 1.0 2.0 0.00 0.00 0.00 73 1020.2
20190618121955 55 229 0.0 2.0 0.00 0.00 0.00 74 1020.3
20190618121458 56 260 0.0 1.0 0.00 0.00 0.00 74 1020.3
20190618120955 56 260 1.0 3.0 0.00 0.00 0.00 74 1020.3
20190618120453 56 260 2.0 3.0 0.00 0.00 0.00 73 1020.2
20190618115952 56 277 2.0 4.0 0.00 0.00 0.00 73 1020.3
20190618115452 56 289 3.0 4.0 0.00 0.00 0.00 73 1020.2
20190618114953 56 240 2.0 6.0 0.00 0.00 0.00 73 1020.1
20190618114453 56 273 2.0 6.0 0.00 0.00 0.00 74 1020.2
20190618113953 55 242 2.0 3.0 0.00 0.00 0.00 74 1020.2
20190618113453 55 234 2.0 3.0 0.00 0.00 0.00 73 1020.3
20190618112951 55 263 2.0 3.0 0.00 0.00 0.00 73 1020.3
20190618112453 54 233 1.0 3.0 0.00 0.00 0.00 73 1020.3
20190618111953 54 208 1.0 3.0 0.00 0.00 0.00 73 1020.3
20190618111451 54 155 1.0 3.0 0.00 0.00 0.00 71 1020.3
20190618110952 55 126 1.0 3.0 0.00 0.00 0.00 69 1020.3
20190618110448 56 136 1.0 3.0 0.00 0.00 0.00 69 1020.3
20190618105952 56 273 1.0 3.0 0.00 0.00 0.00 70 1020.3
20190618105451 56 265 2.0 3.0 0.00 0.00 0.00 71 1020.3
20190618104951 55 262 2.0 3.0 0.00 0.00 0.00 71 1020.2
20190618104451 55 272 1.0 3.0 0.00 0.00 0.00 71 1020.3
20190618103952 55 250 0.0 2.0 0.00 0.00 0.00 70 1020.3
20190618103452 56 249 0.0 2.0 0.00 0.00 0.00 69 1020.3
20190618102952 56 249 1.0 2.0 0.00 0.00 0.00 68 1020.3
20190618102452 56 249 1.0 3.0 0.00 0.00 0.00 68 1020.2
20190618101951 56 250 2.0 3.0 0.00 0.00 0.00 67 1020.2
20190618101456 56 236 1.0 3.0 0.00 0.00 0.00 67 1020.3
20190618100952 56 240 1.0 2.0 0.00 0.00 0.00 67 1020.2
20190618100457 56 205 1.0 2.0 0.00 0.00 0.00 66 1020.2
20190618095951 56 204 1.0 2.0 0.00 0.00 0.00 67 1020.2
20190618095451 56 204 0.0 2.0 0.00 0.00 0.00 67 1020.3
20190618094951 56 204 0.0 1.0 0.00 0.00 0.00 67 1020.2
20190618094447 56 204 1.0 2.0 0.00 0.00 0.00 67 1020.1
20190618093950 56 204 1.0 2.0 0.00 0.00 0.00 67 1020.3
20190618093447 56 204 1.0 2.0 0.00 0.00 0.00 68 1020.2
20190618092946 56 202 1.0 2.0 0.00 0.00 0.00 67 1020.3
20190618092446 56 155 1.0 2.0 0.00 0.00 0.00 68 1020.2
20190618091946 56 150 0.0 2.0 0.00 0.00 0.00 67 1020.3
20190618091444 56 140 1.0 2.0 0.00 0.00 0.00 67 1020.3
20190618090943 56 140 1.0 2.0 0.00 0.00 0.00 66 1020.2
20190618090441 56 140 1.0 2.0 0.00 0.00 0.00 67 1020.1
20190618085940 56 140 0.0 2.0 0.00 0.00 0.00 67 1020.1
20190618085440 56 137 1.0 2.0 0.00 0.00 0.00 65 1020.2
20190618084941 56 136 1.0 2.0 0.00 0.00 0.00 66 1020.1
20190618084443 57 136 0.0 2.0 0.00 0.00 0.00 65 1020.2
20190618083941 57 136 1.0 2.0 0.00 0.00 0.00 64 1020.2
20190618083442 57 136 1.0 3.0 0.00 0.00 0.00 64 1020.1
20190618082940 57 136 2.0 3.0 0.00 0.00 0.00 63 1020.2
20190618082440 58 121 1.0 3.0 0.00 0.00 0.00 63 1020.1
20190618081940 58 128 0.0 3.0 0.00 0.00 0.00 62 1020.2
20190618081440 58 123 1.0 2.0 0.00 0.00 0.00 63 1020.2
20190618080938 58 123 1.0 2.0 0.00 0.00 0.00 63 1020.1
20190618080438 58 123 0.0 2.0 0.00 0.00 0.00 62 1020.1
20190618075938 57 123 0.0 1.0 0.00 0.00 0.00 62 1020.2
20190618075438 58 123 1.0 1.0 0.00 0.00 0.00 62 1020.2
20190618074938 58 121 0.0 1.0 0.00 0.00 0.00 62 1020.3
20190618074437 58 121 0.0 2.0 0.00 0.00 0.00 61 1020.2
20190618073939 58 121 1.0 3.0 0.00 0.00 0.00 60 1020.2
20190618073446 59 121 1.0 3.0 0.00 0.00 0.00 58 1020.2
20190618072937 60 121 1.0 2.0 0.00 0.00 0.00 58 1020.2
20190618072436 60 121 1.0 2.0 0.00 0.00 0.00 58 1020.2
20190618071936 60 175 1.0 2.0 0.00 0.00 0.00 57 1020.2
20190618071436 60 184 1.0 2.0 0.00 0.00 0.00 57 1020.2
20190618070936 60 209 1.0 2.0 0.00 0.00 0.00 57 1020.2
20190618070435 60 259 1.0 2.0 0.00 0.00 0.00 57 1020.2
20190618065934 60 242 1.0 2.0 0.00 0.00 0.00 57 1020.1
20190618065434 60 250 1.0 3.0 0.00 0.00 0.00 57 1020.1
20190618064934 60 250 1.0 3.0 0.00 0.00 0.00 56 1020.1
20190618064434 60 232 1.0 2.0 0.00 0.00 0.00 56 1020.1
20190618063934 60 240 0.0 2.0 0.00 0.00 0.00 55 1020.2
20190618063434 60 28 0.0 0.0 0.00 0.00 0.00 54 1020.2
20190618062934 60 28 0.0 0.0 0.00 0.00 0.00 54 1020.1
20190618062434 60 28 0.0 0.0 0.00 0.00 0.00 55 1020.1
20190618061934 61 28 0.0 1.0 0.00 0.00 0.00 55 1020.2
20190618061437 61 28 0.0 1.0 0.00 0.00 0.00 55 1020.2
20190618060939 61 28 0.0 1.0 0.00 0.00 0.00 54 1020.2
20190618060434 61 28 0.0 1.0 0.00 0.00 0.00 54 1020.2
20190618055933 62 28 0.0 2.0 0.00 0.00 0.00 53 1020.1
20190618055433 62 28 0.0 2.0 0.00 0.00 0.00 53 1020.2
20190618054934 63 300 0.0 1.0 0.00 0.00 0.00 51 1020.1
20190618054433 63 300 1.0 2.0 0.00 0.00 0.00 50 1020.0
20190618053934 64 305 1.0 2.0 0.00 0.00 0.00 50 1020.0
20190618053434 64 315 1.0 3.0 0.00 0.00 0.00 49 1020.0
20190618052932 65 315 1.0 3.0 0.00 0.00 0.00 49 1020.0
20190618052432 65 344 1.0 4.0 0.00 0.00 0.00 48 1019.9
20190618051934 65 302 1.0 4.0 0.00 0.00 0.00 48 1019.9
20190618051431 65 296 1.0 8.0 0.00 0.00 0.00 48 1019.9
20190618050931 65 301 2.0 8.0 0.00 0.00 0.00 48 1019.8
20190618050432 65 313 2.0 5.0 0.00 0.00 0.00 48 1019.9
20190618045932 65 326 1.0 5.0 0.00 0.00 0.00 48 1019.9
20190618045432 66 327 1.0 2.0 0.00 0.00 0.00 48 1020.0
20190618044931 66 319 0.0 1.0 0.00 0.00 0.00 47 1019.9
20190618044432 66 332 0.0 1.0 0.00 0.00 0.00 46 1019.9
20190618043932 67 332 0.0 1.0 0.00 0.00 0.00 46 1019.8
20190618043432 68 332 0.0 1.0 0.00 0.00 0.00 45 1019.8
20190618042932 68 333 0.0 0.0 0.00 0.00 0.00 44 1019.7
20190618042432 69 333 0.0 2.0 0.00 0.00 0.00 44 1019.7
20190618041932 69 333 1.0 3.0 0.00 0.00 0.00 43 1019.6
20190618041431 69 342 2.0 5.0 0.00 0.00 0.00 43 1019.5
20190618040932 69 302 2.0 5.0 0.00 0.00 0.00 43 1019.4
20190618040431 70 311 3.0 8.0 0.00 0.00 0.00 42 1019.3
20190618035932 70 296 2.0 8.0 0.00 0.00 0.00 42 1019.3
20190618035431 71 286 2.0 7.0 0.00 0.00 0.00 41 1019.1
20190618034931 71 288 3.0 8.0 0.00 0.00 0.00 40 1019.1
20190618034432 72 296 3.0 8.0 0.00 0.00 0.00 39 1019.1
20190618033932 73 314 3.0 10.0 0.00 0.00 0.00 38 1018.9
20190618033430 73 300 4.0 10.0 0.00 0.00 0.00 37 1018.9
20190618032930 74 297 5.0 10.0 0.00 0.00 0.00 36 1018.9
20190618032429 74 342 6.0 12.0 0.00 0.00 0.00 35 1018.9
20190618031929 75 284 6.0 12.0 0.00 0.00 0.00 35 1018.9
20190618031428 75 324 6.0 10.0 0.00 0.00 0.00 34 1018.8
20190618030927 76 294 6.0 11.0 0.00 0.00 0.00 34 1018.8
20190618030427 76 285 6.0 14.0 0.00 0.00 0.00 34 1018.7
20190618025927 76 306 6.0 14.0 0.00 0.00 0.00 35 1018.7
20190618025428 76 300 6.0 13.0 0.00 0.00 0.00 34 1018.7
20190618024928 77 286 6.0 13.0 0.00 0.00 0.00 34 1018.6
20190618024428 77 297 6.0 13.0 0.00 0.00 0.00 34 1018.6
20190618023928 78 316 7.0 13.0 0.00 0.00 0.00 34 1018.5
20190618023427 78 318 6.0 12.0 0.00 0.00 0.00 34 1018.5
20190618022927 78 274 6.0 13.0 0.00 0.00 0.00 34 1018.4
20190618022427 78 315 6.0 13.0 0.00 0.00 0.00 35 1018.3
20190618021928 78 302 7.0 14.0 0.00 0.00 0.00 34 1018.3
20190618021427 78 286 7.0 14.0 0.00 0.00 0.00 34 1018.3
20190618020928 79 323 6.0 12.0 0.00 0.00 0.00 33 1018.3
20190618020426 80 298 5.0 12.0 0.00 0.00 0.00 33 1018.2
20190618015926 80 272 6.0 14.0 0.00 0.00 0.00 32 1018.2
20190618015428 80 340 6.0 14.0 0.00 0.00 0.00 32 1018.2
20190618014928 81 307 5.0 10.0 0.00 0.00 0.00 31 1018.1
20190618014427 81 347 5.0 11.0 0.00 0.00 0.00 31 1018.1
20190618013925 81 340 6.0 12.0 0.00 0.00 0.00 31 1017.8
20190618013426 82 325 6.0 12.0 0.00 0.00 0.00 30 1017.8
20190618012926 83 319 6.0 13.0 0.00 0.00 0.00 31 1017.8
20190618012423 83 325 5.0 13.0 0.00 0.00 0.00 29 1017.7
20190618011923 83 350 6.0 14.0 0.00 0.00 0.00 29 1017.8
20190618011424 83 314 7.0 14.0 0.00 0.00 0.00 29 1017.7
20190618010924 83 344 7.0 13.0 0.00 0.00 0.00 29 1017.6
20190618010423 83 333 6.0 12.0 0.00 0.00 0.00 28 1017.6
20190618005923 83 292 6.0 11.0 0.00 0.00 0.00 28 1017.6
20190618005422 83 333 6.0 12.0 0.00 0.00 0.00 27 1017.4